Temperature
21 18 18 18 19 20 19 19 19 19 20 19 18 18 17 18 18 18 18 18 18 19 19 18 18 18 18 17 17 17 17 17 16 16 16 16 16 16 16 16 16 16 16 16
18 18 20 20 20 20 20 19 19 19 20 19 18 18 18 18 18 18 18 18 18 18 18 18 18 18 18 18 17 17 17 17 17 16 16 16 16 16 16 15 16 16 16 16
19 20 21 21 21 20 20 19 19 19 19 19 18 18 17 18 19 19 19 19 19 19 18 18 18 18 18 18 17 17 17 17 16 16 16 16 16 16 15 15 15 15 15 15
19 21 21 21 20 20 19 20 20 20 18 17 18 16 17 17 17 18 18 18 18 18 19 18 18 18 18 18 17 17 17 17 17 16 16 16 16 16 15 15 15 15 15 15
20 21 20 21 21 21 20 21 20 20 18 17 17 17 16 17 17 17 18 18 19 19 19 19 18 18 18 18 17 17 17 17 17 16 16 16 16 16 15 15 15 15 15 15
20 21 21 21 22 21 21 20 19 17 17 17 17 17 17 16 17 18 18 19 19 19 19 19 19 18 18 18 17 17 17 17 17 16 16 16 16 16 15 15 15 15 15 15
20 21 21 22 21 21 20 17 17 17 16 16 17 18 17 18 18 19 19 19 19 19 19 19 18 18 18 18 17 17 17 17 16 16 16 16 16 16 16 15 15 15 15 15
19 19 21 21 20 19 19 18 17 17 16 17 18 18 18 19 20 20 20 20 19 19 19 19 19 18 18 18 17 17 17 17 16 16 16 16 16 16 16 16 15 15 15 15
18 19 21 22 21 20 19 18 17 17 17 17 17 18 19 19 19 19 19 19 19 19 19 19 19 18 18 18 18 17 17 17 16 16 16 16 16 16 16 16 15 15 15 15
19 19 20 21 21 21 19 18 16 17 17 17 18 18 18 18 19 18 18 19 19 19 19 19 19 18 18 18 18 17 17 17 17 16 16 16 16 16 16 16 15 15 15 15
19 19 19 20 20 19 19 19 18 16 16 16 17 17 19 19 19 18 18 19 19 19 19 18 19 19 18 18 17 17 17 17 16 16 16 16 16 16 16 15 15 15 15 15
19 17 17 19 20 20 20 19 17 17 17 16 16 17 20 19 19 19 19 19 19 19 19 19 19 18 18 18 17 17 17 17 17 16 16 16 16 16 16 15 15 15 15 15
19 17 17 18 19 20 20 20 18 17 16 16 16 18 19 19 19 20 20 19 19 19 19 19 18 18 18 18 18 17 17 17 17 16 16 16 16 16 15 15 15 15 15 15
19 17 17 18 18 19 20 20 20 18 16 16 17 18 19 19 19 19 20 20 20 19 19 18 18 18 18 18 17 17 17 17 17 16 16 16 16 16 15 15 15 15 15 15
19 18 18 18 19 20 20 20 20 19 18 17 18 18 19 19 19 20 20 20 19 19 19 18 18 18 18 18 17 17 17 17 16 16 16 16 16 15 15 15 15 15 15 14
17 18 18 19 20 20 20 20 20 20 20 19 19 19 19 20 20 20 20 19 19 19 19 19 18 18 18 18 17 17 17 17 17 16 16 16 16 15 15 15 15 15 14 14
16 17 17 17 19 19 19 20 20 20 20 20 19 19 19 19 19 20 20 20 20 19 19 19 19 18 18 18 17 17 17 17 16 16 16 16 16 15 15 15 15 15 14 14
17 16 15 16 18 18 19 20 21 20 20 20 20 19 19 20 20 21 20 20 20 20 19 19 19 18 18 18 17 17 17 16 16 16 16 16 16 15 15 15 15 14 14 14
17 16 15 15 16 18 19 20 21 20 20 20 19 19 20 21 20 19 20 20 20 20 20 19 19 19 18 18 17 17 17 16 16 16 16 16 16 15 15 15 15 14 14 14
16 16 15 15 17 17 19 20 21 20 19 19 19 19 20 19 17 17 20 20 20 20 20 19 19 18 18 18 17 17 17 16 16 16 16 16 15 15 15 15 14 14 14 14
17 16 15 15 16 17 18 20 20 18 18 20 20 20 20 18 19 20 20 20 20 20 19 19 19 18 18 18 17 17 17 17 16 16 16 15 15 15 15 14 14 14 13 13
16 15 15 15 15 17 19 19 18 18 20 20 20 20 20 20 20 20 20 20 19 19 19 19 18 18 18 18 17 17 17 17 16 16 16 15 15 15 14 14 14 13 13 13
15 15 15 15 16 18 19 20 20 21 20 20 20 20 20 20 20 20 19 19 19 19 19 18 18 18 18 17 17 17 17 17 16 16 15 15 15 14 14 14 13 13 13 13
15 15 15 15 16 18 19 20 20 21 21 21 21 20 20 20 19 19 19 19 18 18 18 18 18 18 17 17 17 17 17 16 16 16 15 15 15 14 14 13 13 13 13 12
14 15 15 15 16 17 18 19 20 20 20 20 20 20 20 20 19 19 18 18 18 18 18 17 17 17 17 17 17 17 16 16 16 15 15 15 14 14 13 13 13 13 13 13
14 14 14 15 16 16 18 19 19 19 20 20 19 19 19 19 19 18 18 18 17 17 17 17 17 17 17 16 16 16 16 16 15 15 15 14 14 13 13 13 13 12 12 12
Wind_Speed
1 4 3 6 7 5 5 5 3 4 4 5 6 6 7 8 8 8 8 8 9 9 8 8 9 9 8 8 7 7 7 5 5 4 4 4 3 3 3 5 8 9 9 10
3 2 7 6 4 3 3 4 2 1 3 4 5 4 6 8 9 11 12 11 11 9 7 7 8 9 9 8 7 7 7 6 5 4 3 3 3 2 2 3 7 8 9 9
5 4 5 5 3 2 2 5 5 4 2 2 3 2 4 5 5 7 10 11 11 13 12 11 10 9 9 9 9 8 7 6 6 5 4 4 4 4 3 3 3 5 8 8
2 3 3 4 4 4 2 4 5 5 4 1 3 2 6 5 6 7 9 10 12 12 11 11 11 10 10 9 8 8 8 7 6 6 7 6 4 3 2 1 1 3 7 8
3 3 4 4 4 5 4 3 3 3 3 0 1 2 6 3 6 9 10 12 13 13 12 12 12 12 10 9 9 8 8 7 6 6 7 7 5 3 2 2 3 3 4 6
3 3 4 4 3 4 4 4 4 4 4 1 5 4 5 5 10 10 10 12 13 13 12 11 10 10 8 7 8 7 8 6 6 7 7 7 7 6 5 4 3 2 2 3
1 3 2 4 3 2 5 6 3 3 2 5 3 4 7 9 9 12 12 12 13 13 12 12 11 11 10 9 8 8 8 6 6 7 6 7 8 7 7 5 4 3 2 2
3 3 4 4 5 5 4 7 5 4 4 4 2 4 6 6 7 9 10 10 12 13 13 14 13 12 11 11 10 9 8 7 6 7 7 6 7 5 4 5 4 4 3 2
6 5 3 3 4 7 4 4 6 5 2 2 3 3 4 1 3 6 8 10 12 13 14 14 13 12 11 11 10 10 9 7 7 7 7 7 6 6 5 5 4 3 3 3
7 4 3 2 3 1 6 6 4 3 2 2 3 3 4 5 6 7 9 11 12 12 13 13 12 12 11 10 9 9 9 8 7 7 7 7 6 6 6 5 5 4 4 4
5 5 2 1 5 7 3 3 4 4 4 4 3 6 5 8 9 10 11 11 12 13 12 12 12 11 10 9 9 8 8 7 7 7 7 7 6 5 5 5 5 5 4 5
4 5 3 6 5 6 7 6 7 5 3 4 3 6 6 7 8 9 10 9 11 13 12 12 11 11 10 10 9 9 8 8 7 7 7 7 6 5 5 5 5 5 6 5
5 6 3 3 4 1 3 5 6 5 4 3 3 6 4 2 5 7 9 9 10 11 11 10 10 11 11 11 10 9 9 8 8 8 8 7 6 6 5 5 5 5 6 5
6 4 6 8 7 5 5 6 6 6 4 4 6 6 5 4 5 6 7 9 10 11 12 12 11 10 10 10 9 9 9 8 8 8 8 8 7 7 6 5 5 5 6 6
5 4 5 6 5 4 5 7 7 7 8 8 8 8 10 9 9 9 9 9 10 11 12 13 12 11 10 9 9 9 9 8 9 9 8 8 7 7 7 6 6 6 6 6
3 4 2 3 4 4 5 6 7 8 7 7 6 7 8 7 6 7 8 10 12 12 13 13 12 12 11 11 10 9 9 8 9 9 8 7 7 7 7 6 6 6 5 5
2 4 3 3 4 1 5 7 7 6 6 7 8 9 5 5 9 10 11 12 12 13 13 13 13 13 12 12 11 11 10 8 8 9 8 8 8 8 7 7 7 6 5 5
5 4 3 2 1 4 8 5 6 6 6 6 6 7 8 9 9 8 9 12 12 12 13 13 12 12 11 10 10 10 9 9 9 8 8 8 9 8 7 7 7 6 5 5
8 7 4 3 3 5 5 3 4 5 5 5 5 5 5 5 4 1 4 9 12 12 12 11 11 11 11 11 11 10 10 9 9 9 9 9 9 9 8 8 7 6 6 5
4 6 5 4 4 6 7 6 3 4 4 5 3 4 5 7 4 5 5 6 8 9 9 10 10 9 11 10 11 11 10 10 10 10 9 9 9 9 9 8 6 5 5 5
2 2 5 5 5 7 7 4 3 4 7 4 4 4 6 7 7 6 7 7 8 8 9 10 10 10 11 11 12 11 10 11 10 9 8 8 9 9 8 6 5 6 6 5
5 4 4 5 5 7 4 3 5 6 4 2 3 4 5 5 4 5 7 7 8 7 8 9 10 9 9 11 12 11 10 10 9 9 9 8 8 8 7 7 6 6 6 6
5 6 5 6 7 6 3 5 4 4 3 3 4 3 4 4 4 5 5 6 6 7 7 7 9 9 8 9 11 12 10 9 10 10 9 8 7 7 7 8 7 6 6 5
3 1 3 2 5 3 2 2 1 2 4 4 4 4 4 5 6 6 5 6 6 6 6 6 8 9 8 7 9 9 9 10 11 10 9 8 8 6 6 6 6 6 6 6
4 1 2 3 4 1 2 1 1 1 3 4 4 3 5 6 6 6 5 5 5 6 6 7 8 8 8 7 7 7 9 11 11 10 9 8 7 7 6 5 5 6 6 8
4 3 4 5 5 4 5 3 1 3 3 4 3 2 2 5 6 6 5 5 5 5 5 6 6 7 7 8 7 7 9 11 11 9 8 7 6 6 6 5 3 1 3 6
Wind_Direction
100 100 181 205 196 182 167 157 172 201 180 150 165 185 198 198 189 194 196 192 188 188 182 167 160 152 145 145 140 135 125 127 119 105 98 90 80 65 58 62 67 69 70 78
54 221 218 201 193 168 159 153 167 169 161 146 167 207 215 202 203 200 196 194 189 184 173 165 159 154 153 155 149 143 138 139 134 130 126 125 120 91 77 58 57 64 70 75
174 221 199 175 177 178 201 173 177 170 119 77 117 294 259 244 221 206 197 195 187 183 179 173 166 163 157 160 161 156 150 145 138 129 109 92 72 58 50 48 42 46 69 76
200 223 157 164 191 170 193 193 165 148 123 221 160 234 263 232 221 206 196 190 188 187 181 174 168 168 168 170 165 157 153 149 143 134 127 126 125 129 154 129 80 48 65 75
220 188 171 197 209 166 189 182 151 142 133 106 212 180 271 211 212 218 205 193 189 185 181 177 175 172 170 166 164 161 153 151 146 140 141 135 132 141 130 103 85 61 48 63
216 210 187 197 180 155 132 81 53 58 76 281 225 186 263 217 213 211 206 195 189 184 179 175 172 164 163 160 157 157 154 155 152 147 147 146 144 139 126 117 108 83 53 46
307 288 213 148 111 62 94 90 48 14 6 257 228 190 244 230 211 200 195 191 185 179 174 169 167 165 166 164 163 161 155 159 159 154 154 154 152 149 151 151 144 133 103 81
178 252 224 175 162 174 167 138 155 188 221 272 264 226 258 241 206 193 185 178 177 175 176 175 175 173 171 170 169 163 161 164 164 161 161 157 153 152 156 159 152 151 150 155
179 230 238 188 163 148 153 177 174 152 207 255 274 280 321 2 161 170 170 170 177 178 177 178 177 174 172 171 173 169 166 167 165 164 159 154 157 157 157 155 150 150 148 140
164 185 222 187 101 149 163 159 112 134 176 252 286 259 232 223 205 187 180 181 184 180 178 177 176 177 176 174 172 169 168 169 167 162 161 159 160 161 154 146 148 150 144 127
149 152 216 154 186 195 182 166 147 149 165 167 238 267 230 206 200 190 192 187 179 178 180 180 180 178 174 171 169 170 168 162 162 161 155 151 156 150 143 149 157 155 143 137
157 133 188 235 246 197 181 186 157 162 210 184 193 265 266 195 193 187 187 184 182 179 179 179 177 172 171 172 173 173 169 168 170 164 155 156 152 146 146 152 157 150 146 142
143 121 104 339 323 273 199 193 172 155 146 173 190 261 295 178 185 188 182 182 181 178 175 172 170 172 176 177 176 174 173 173 167 157 154 153 153 150 154 156 150 145 143 136
128 126 167 196 217 213 228 224 190 155 173 206 218 236 263 221 206 200 186 181 178 178 174 173 176 176 178 179 175 172 174 172 165 158 158 161 165 163 162 156 148 147 144 138
118 158 201 222 232 216 228 224 207 197 196 199 224 220 229 219 208 201 189 176 170 174 176 177 178 177 176 175 173 171 171 171 166 160 164 172 167 159 151 148 148 144 140 143
109 158 175 252 244 236 248 234 219 217 210 213 219 240 235 211 190 186 184 174 174 179 180 178 177 176 176 176 174 171 171 171 165 165 170 167 158 154 151 150 144 138 136 136
144 143 145 248 273 347 252 227 220 222 214 193 214 234 219 185 191 191 190 186 182 180 180 178 179 182 181 179 176 175 174 167 163 165 166 164 161 157 156 152 143 142 144 138
164 152 153 201 86 230 246 232 198 204 234 221 210 215 199 194 195 193 189 185 184 182 182 183 181 182 181 176 174 170 163 162 162 162 164 162 159 158 155 150 150 149 142 141
170 160 153 156 194 257 279 256 194 186 243 247 219 221 207 164 121 214 204 185 184 184 182 183 181 176 171 171 168 161 162 163 164 169 172 168 162 159 158 158 158 154 145 145
135 141 146 152 176 222 241 252 208 141 257 269 210 200 176 130 147 231 220 188 178 175 172 171 168 162 164 170 163 161 167 169 177 179 175 169 163 161 163 165 159 150 149 152
127 126 160 174 204 246 252 260 109 158 235 250 190 176 160 169 195 199 183 174 169 165 164 160 159 165 172 167 163 166 171 182 183 170 161 162 163 163 161 157 152 147 147 145
178 171 190 170 194 240 254 136 166 213 227 191 170 163 161 170 165 153 153 156 156 153 152 156 160 168 169 165 165 169 181 182 163 155 155 159 162 163 158 152 152 149 146 147
187 187 186 191 212 230 214 190 212 196 178 170 164 166 148 149 149 151 154 153 153 156 159 159 159 159 164 169 169 175 181 164 155 155 159 159 154 155 153 155 156 152 153 158
274 159 153 227 256 248 238 202 212 164 161 162 155 145 135 150 156 153 152 156 156 153 158 158 154 156 164 170 173 176 165 157 155 160 163 159 155 152 151 157 162 163 172 174
244 188 152 232 255 292 266 238 192 125 107 103 106 130 141 145 153 158 159 159 160 158 154 156 162 167 170 164 164 163 158 154 156 160 161 159 159 158 158 163 171 176 191 190
223 186 186 227 231 197 231 244 190 136 134 133 118 104 113 146 153 150 159 163 155 154 147 153 160 163 166 162 162 161 160 159 159 160 162 162 161 161 161 157 148 151 175 184
Height
1517 1522 1527 1525 1523 1524 1527 1531 1535 1533 1528 1531 1535 1537 1535 1535 1536 1538 1539 1540 1542 1544 1546 1548 1550 1552 1554 1556 1557 1558 1559 1560 1561 1562 1562 1563 1563 1564 1564 1564 1564 1564 1564 1563
1522 1525 1519 1517 1519 1522 1526 1532 1534 1531 1527 1531 1536 1536 1533 1533 1534 1534 1536 1538 1540 1542 1545 1547 1549 1551 1553 1555 1556 1558 1559 1560 1561 1562 1563 1563 1564 1564 1565 1565 1565 1565 1564 1564
1523 1520 1515 1518 1520 1523 1526 1530 1531 1532 1530 1531 1536 1540 1536 1532 1532 1533 1534 1535 1538 1540 1542 1545 1548 1550 1552 1554 1556 1557 1559 1560 1561 1562 1563 1564 1564 1565 1565 1566 1565 1565 1565 1565
1519 1515 1515 1518 1520 1521 1529 1523 1524 1528 1536 1543 1539 1553 1538 1532 1531 1531 1531 1533 1535 1538 1540 1543 1545 1548 1550 1553 1555 1557 1558 1560 1561 1562 1563 1564 1564 1565 1565 1566 1566 1566 1566 1566
1518 1514 1516 1519 1518 1518 1522 1519 1522 1527 1535 1542 1540 1548 1542 1532 1532 1529 1528 1530 1532 1535 1538 1540 1543 1546 1549 1551 1554 1556 1558 1559 1561 1562 1563 1564 1564 1565 1566 1566 1566 1567 1567 1567
1514 1512 1513 1514 1513 1514 1517 1522 1526 1532 1540 1550 1541 1546 1543 1533 1526 1523 1524 1526 1529 1532 1535 1538 1541 1544 1547 1550 1553 1555 1557 1558 1560 1561 1562 1563 1564 1565 1565 1566 1566 1567 1567 1567
1518 1514 1511 1511 1515 1517 1520 1535 1549 1552 1557 1552 1536 1539 1535 1518 1515 1516 1518 1522 1525 1529 1533 1536 1539 1542 1545 1548 1551 1553 1555 1557 1559 1560 1562 1563 1564 1565 1565 1566 1566 1567 1567 1567
1526 1527 1513 1510 1514 1520 1522 1531 1550 1557 1557 1549 1535 1537 1524 1510 1510 1511 1515 1518 1522 1526 1530 1533 1536 1540 1543 1546 1549 1551 1554 1555 1557 1559 1561 1562 1563 1564 1565 1566 1566 1567 1567 1567
1523 1523 1509 1507 1509 1514 1523 1529 1529 1541 1543 1548 1540 1529 1518 1510 1510 1512 1514 1517 1520 1524 1527 1531 1534 1537 1540 1544 1547 1549 1552 1554 1556 1558 1559 1561 1562 1563 1564 1565 1566 1566 1567 1568
1510 1519 1511 1507 1509 1511 1515 1521 1532 1540 1549 1552 1541 1533 1528 1517 1513 1512 1513 1515 1518 1522 1525 1528 1532 1535 1538 1541 1545 1548 1550 1552 1554 1556 1558 1560 1561 1563 1564 1565 1565 1566 1567 1568
1505 1516 1516 1512 1514 1516 1517 1520 1526 1535 1539 1549 1550 1538 1511 1510 1508 1509 1511 1513 1515 1519 1522 1526 1530 1533 1536 1540 1542 1545 1548 1550 1553 1555 1557 1558 1560 1562 1563 1564 1565 1565 1566 1567
1502 1513 1521 1514 1506 1504 1509 1514 1522 1535 1537 1538 1543 1534 1503 1503 1504 1506 1508 1510 1513 1516 1519 1523 1527 1531 1534 1537 1540 1543 1546 1548 1551 1553 1555 1557 1559 1560 1562 1563 1564 1565 1566 1567
1500 1512 1526 1524 1518 1509 1508 1509 1513 1521 1530 1536 1540 1529 1503 1502 1503 1504 1506 1508 1511 1514 1517 1521 1524 1527 1531 1534 1537 1540 1543 1546 1549 1551 1554 1556 1557 1559 1560 1562 1563 1564 1565 1566
1495 1508 1518 1524 1517 1509 1509 1506 1507 1516 1529 1530 1526 1518 1507 1504 1503 1503 1504 1506 1508 1512 1514 1518 1521 1524 1528 1531 1534 1538 1541 1544 1547 1549 1552 1554 1556 1558 1559 1561 1562 1563 1564 1565
1494 1506 1506 1505 1502 1502 1502 1502 1503 1508 1513 1519 1514 1510 1504 1500 1500 1501 1502 1504 1506 1510 1512 1515 1518 1521 1525 1529 1532 1535 1538 1541 1544 1547 1550 1552 1554 1556 1558 1559 1561 1562 1563 1564
1495 1502 1504 1504 1499 1500 1501 1498 1498 1500 1501 1505 1505 1504 1495 1495 1497 1499 1500 1502 1504 1507 1509 1512 1516 1519 1522 1525 1529 1532 1535 1539 1542 1545 1547 1550 1553 1555 1556 1558 1559 1561 1562 1563
1499 1502 1508 1512 1503 1501 1507 1497 1496 1496 1494 1497 1502 1498 1492 1494 1495 1496 1497 1498 1500 1503 1506 1509 1512 1516 1519 1523 1526 1529 1533 1536 1540 1543 1545 1548 1550 1553 1554 1556 1558 1559 1560 1561
1496 1501 1509 1512 1510 1517 1501 1486 1487 1490 1490 1489 1489 1488 1488 1489 1490 1492 1494 1496 1498 1501 1504 1507 1510 1513 1517 1521 1524 1528 1531 1534 1537 1540 1543 1545 1548 1550 1552 1554 1556 1557 1558 1560
1487 1497 1508 1514 1514 1507 1493 1485 1485 1489 1491 1486 1486 1485 1486 1487 1490 1492 1493 1494 1495 1498 1501 1504 1508 1511 1514 1518 1522 1525 1529 1532 1534 1537 1540 1543 1545 1548 1550 1552 1553 1555 1556 1558
1485 1490 1502 1510 1512 1512 1495 1482 1480 1486 1493 1484 1483 1484 1484 1487 1494 1492 1491 1492 1494 1497 1499 1502 1506 1509 1512 1516 1520 1523 1526 1529 1531 1534 1537 1540 1543 1545 1547 1550 1551 1553 1555 1556
1490 1494 1500 1506 1507 1499 1484 1479 1481 1497 1494 1482 1481 1481 1482 1484 1486 1487 1488 1490 1492 1495 1498 1501 1504 1507 1510 1514 1517 1520 1523 1526 1529 1532 1535 1538 1541 1543 1545 1548 1549 1551 1553 1555
1489 1495 1498 1502 1505 1499 1478 1479 1484 1484 1479 1479 1479 1480 1480 1482 1483 1484 1486 1488 1491 1493 1496 1499 1502 1505 1508 1511 1514 1517 1520 1523 1527 1530 1533 1536 1538 1541 1543 1545 1547 1549 1551 1552
1484 1485 1487 1489 1489 1478 1475 1476 1477 1477 1477 1477 1478 1479 1480 1481 1482 1483 1485 1487 1489 1492 1494 1497 1500 1503 1506 1509 1512 1514 1518 1521 1525 1528 1530 1533 1536 1538 1540 1542 1544 1546 1548 1550
1478 1476 1480 1482 1477 1474 1474 1474 1475 1475 1475 1476 1477 1477 1479 1480 1481 1483 1484 1486 1488 1491 1493 1496 1498 1501 1503 1506 1510 1513 1516 1519 1522 1525 1528 1530 1533 1535 1538 1540 1542 1544 1545 1547
1477 1476 1478 1479 1475 1473 1472 1473 1474 1475 1475 1475 1476 1477 1478 1479 1480 1482 1483 1485 1487 1489 1491 1494 1496 1499 1501 1504 1508 1511 1514 1517 1519 1522 1525 1528 1530 1532 1535 1537 1539 1541 1543 1544
1473 1475 1477 1477 1472 1472 1472 1472 1473 1473 1474 1474 1475 1476 1477 1478 1479 1481 1482 1484 1486 1488 1490 1493 1495 1497 1500 1503 1505 1508 1511 1514 1517 1519 1522 1525 1527 1529 1532 1534 1536 1538 1540 1542